Погода в Неклюдове

Россия / Тверская область     57°08′39″N   37°20′39″E
темп.,
°C
ветер,
м/с
пор.,
м/с
влажн.,
%
обл.,
%
осадки,
мм/ч
давл.,
гПа
погр.,
м
15 апреля, чт
чт1500:00+11ссв4892100 0.3 1018280
03:00+8ссв5993100 0.3 1019364
06:00+7ссв41194100 0.0 1019421
09:00+8ссв51088100 0.0 1020416
12:00+10св697899 0.0 1020655
15:00+12св6971100 0.0 1021937
18:00+10св61075100 0.0 1021870
21:00+8св61281100 0.0 1022720
16 апреля, пт
пт1600:00+6всв61385100 0.0 1023596
03:00+5всв61386100 0.0 1023541
06:00+5всв51386100 0.0 1024535
09:00+7всв51179100 0.0 1025678
12:00+10всв6869100 0.0 1025889
15:00+12всв6861100 0.0 10251118
18:00+12всв596453 0.0 10251096
21:00+8всв5136599 0.0 1026543
17 апреля, сб
сб1700:00+6всв51364100 0.0 1027513
03:00+5всв5127371 0.0 1027407
06:00+3всв5127898 0.0 1028415
09:00+7всв5106221 0.0 1028599
12:00+11всв68475 0.0 10281039
15:00+13всв68395 0.0 10271342
18:00+12всв59435 0.0 10271002
21:00+7св412615 0.0 1028331
18 апреля, вс
вс1800:00+6всв412700 0.0 1028337
03:00+4св411770 0.0 1028297
06:00+3св411810 0.0 1029287
09:00+8всв59625 0.0 1028661
12:00+11всв584897 0.0 10281458
15:00+12всв574188 0.0 10281820
18:00+11всв485055 0.0 10281145
21:00+7св386885 0.0 1029170
19 апреля, пн
пн1900:00+6св3974100 0.0 1029228
03:00+5всв3984100 0.0 1030232
06:00+4всв3891100 0.0 1030266
09:00+7всв466969 0.0 1030580
12:00+10всв4650100 0.0 10301310
15:00+11в463679 0.0 10291556
18:00+9всв4644100 0.0 1029888
21:00+6в4105547 0.0 1030366